Date String (YYYY-MM-DD hh:mm:ss) UTC,Instrument flags,absolute air pressure of the measurement (hPa),sample flow rate (lpm),inlet stack bypass flow (lpm),air temperature of the measurement (°C),ambient temperature measured by the external sensor (°C),aerosol sample conditioner tube jacket temperature (°C),OPC LED temperature (°C),internal box temperature (°C),relative humidity of the measurement (%),span deviation,mass concentration of particles derived from Lorenz-Mie calculation of OPC scattering (μg/m³),mass concentration of particles derived from Lorenz-Mie calculation of OPC scattering (μg/m³),mass concentration of particles derived from Lorenz-Mie calculation of OPC scattering (μg/m³)
DateTimeUTC,F1_M11,P_M11,Q1_M11,Q2_M11,T1_M11,T2_M11,T3_M11,T4_M11,T5_M11,U1_M11,ZSPAN_M11,X0_M11,X2_M11,X1_M11
2023-08-27 16:00:00,SystemResetWarning,0835.6,5.00,000.00,030.2,026.1,000.0,038.2,030.3,34.3,0000.3,0014.84,0009.63,0009.19
2023-08-27 16:01:00,SystemResetWarning,0835.6,5.01,000.00,030.1,026.4,000.0,038.3,030.4,34.6,0000.3,0014.37,0009.60,0009.17
2023-08-27 16:02:00,SystemResetWarning,0835.6,5.00,000.00,030.1,026.6,000.0,038.3,030.4,35.0,0000.6,0013.89,0009.59,0009.16
2023-08-27 16:03:00,SystemResetWarning,0835.6,5.03,000.00,030.2,026.9,000.0,038.3,030.5,35.0,0001.0,0013.78,0009.58,0009.13
2023-08-27 16:04:00,SystemResetWarning,0835.6,4.97,000.00,030.3,026.5,000.0,038.2,030.5,34.4,0001.1,0013.76,0009.55,0009.09
2023-08-27 16:05:00,SystemResetWarning,0835.6,5.01,000.00,030.4,025.2,000.0,038.1,030.3,34.3,0001.0,0014.06,0009.62,0009.08
2023-08-27 16:06:00,SystemResetWarning,0835.6,5.01,000.00,030.4,024.6,000.0,038.0,030.2,34.9,0000.9,0015.11,0009.66,0009.10
2023-08-27 16:07:00,SystemResetWarning,0835.7,4.99,000.00,030.4,024.8,000.0,038.0,030.1,34.6,0001.0,0015.35,0009.69,0009.12
2023-08-27 16:08:00,SystemResetWarning,0835.6,4.99,000.00,030.3,025.1,000.0,038.1,030.0,34.2,0001.1,0015.54,0009.77,0009.19
2023-08-27 16:09:00,SystemResetWarning,0835.6,5.00,000.00,030.2,025.5,000.0,038.1,030.1,34.5,0001.1,0015.32,0009.82,0009.24
2023-08-27 16:10:00,SystemResetWarning,0835.6,5.01,000.00,030.2,025.9,000.0,038.1,030.2,34.4,0001.1,0016.03,0009.83,0009.28
2023-08-27 16:11:00,SystemResetWarning,0835.6,4.99,000.00,030.2,026.2,000.0,038.2,030.3,34.9,0001.1,0016.32,0009.87,0009.33
2023-08-27 16:12:00,SystemResetWarning,0835.6,5.01,000.00,030.2,026.5,000.0,038.2,030.4,34.6,0001.1,0016.45,0009.92,0009.37
2023-08-27 16:13:00,SystemResetWarning,0835.6,4.97,000.00,030.3,026.7,000.0,038.2,030.5,34.7,0001.0,0016.57,0009.96,0009.43
2023-08-27 16:14:00,SystemResetWarning,0835.6,5.04,000.00,030.3,026.9,000.0,038.3,030.6,34.4,0000.8,0016.49,0009.96,0009.46
2023-08-27 16:15:00,SystemResetWarning,0835.6,4.97,000.00,030.4,026.2,000.0,038.1,030.5,34.4,0000.7,0016.55,0010.01,0009.50
2023-08-27 16:16:00,SystemResetWarning,0835.6,5.01,000.00,030.4,024.9,000.0,038.0,030.2,34.2,0000.7,0016.59,0009.98,0009.54
2023-08-27 16:17:00,SystemResetWarning,0835.6,5.01,000.00,030.3,024.6,000.0,038.0,030.1,34.5,0000.7,0015.60,0010.00,0009.56
2023-08-27 16:18:00,SystemResetWarning,0835.6,5.00,000.00,030.2,024.9,000.0,038.0,029.9,34.2,0000.8,0015.43,0010.02,0009.57
2023-08-27 16:19:00,SystemResetWarning,0835.6,5.00,000.00,030.0,025.3,000.0,038.1,030.0,34.7,0000.8,0015.23,0010.02,0009.55
2023-08-27 16:20:00,SystemResetWarning,0835.5,4.98,000.00,030.0,025.7,000.0,038.1,030.1,35.1,0000.8,0015.05,0010.01,0009.53
2023-08-27 16:21:00,SystemResetWarning,0835.5,5.04,000.00,030.0,026.0,000.0,038.1,030.2,34.8,0000.8,0014.27,0009.99,0009.50
2023-08-27 16:22:00,SystemResetWarning,0835.5,4.96,000.00,030.1,026.3,000.0,038.1,030.4,34.2,0000.5,0013.74,0009.96,0009.47
2023-08-27 16:23:00,SystemResetWarning,0835.5,5.02,000.00,030.2,026.6,000.0,038.2,030.4,34.3,0000.4,0014.08,0009.94,0009.42
2023-08-27 16:24:00,SystemResetWarning,0835.7,4.99,000.00,030.2,026.6,000.0,038.1,030.5,33.9,0000.1,0013.98,0009.89,0009.37
2023-08-27 16:25:00,SystemResetWarning,0835.5,4.99,000.00,030.2,025.4,000.0,038.0,030.3,34.1,0000.2,0014.12,0009.85,0009.29
2023-08-27 16:26:00,SystemResetWarning,0835.5,4.99,000.00,030.2,024.5,000.0,037.9,030.0,34.9,0000.6,0014.43,0009.83,0009.23
2023-08-27 16:27:00,SystemResetWarning,0835.5,5.03,000.00,030.1,024.5,000.0,037.9,029.9,35.7,0000.6,0014.22,0009.78,0009.17
2023-08-27 16:28:00,SystemResetWarning,0835.5,5.00,000.00,030.2,024.8,000.0,037.9,030.0,35.5,0000.8,0014.07,0009.74,0009.13
2023-08-27 16:29:00,SystemResetWarning,0835.5,5.00,000.00,030.5,025.2,000.0,038.0,030.2,34.8,0000.9,0013.96,0009.65,0009.08
2023-08-27 16:30:00,SystemResetWarning,0835.7,4.97,000.00,030.7,025.6,000.0,038.0,030.4,33.3,0001.1,0014.33,0009.56,0009.02
2023-08-27 16:31:00,SystemResetWarning,0835.5,5.02,000.00,030.8,026.0,000.0,038.1,030.5,32.9,0001.0,0014.34,0009.51,0008.99
2023-08-27 16:32:00,SystemResetWarning,0835.5,5.01,000.00,030.9,026.3,000.0,038.2,030.5,33.3,0000.9,0014.24,0009.50,0008.97
2023-08-27 16:33:00,SystemResetWarning,0835.6,4.99,000.00,030.9,026.6,000.0,038.3,030.5,32.9,0000.9,0014.25,0009.48,0008.95
2023-08-27 16:34:00,SystemResetWarning,0835.6,4.99,000.00,031.0,026.7,000.0,038.4,030.6,32.6,0001.0,0014.27,0009.42,0008.92
2023-08-27 16:35:00,SystemResetWarning,0835.5,5.00,000.00,031.0,025.6,000.0,038.3,030.4,32.5,0001.2,0014.94,0009.41,0008.92
2023-08-27 16:36:00,SystemResetWarning,0835.5,5.00,000.00,031.0,024.6,000.0,038.2,030.2,33.4,0001.2,0015.04,0009.45,0008.93
2023-08-27 16:37:00,SystemResetWarning,0835.7,5.01,000.00,030.9,024.5,000.0,038.2,030.1,32.9,0001.1,0014.61,0009.43,0008.94
2023-08-27 16:38:00,SystemResetWarning,0835.6,5.01,000.00,030.7,024.8,000.0,038.3,030.0,32.6,0001.1,0014.49,0009.42,0008.94
2023-08-27 16:39:00,SystemResetWarning,0835.5,4.99,000.00,030.6,025.2,000.0,038.4,030.1,33.2,0000.9,0014.37,0009.39,0008.92
2023-08-27 16:40:00,SystemResetWarning,0835.5,5.00,000.00,030.5,025.6,000.0,038.4,030.2,33.3,0000.6,0014.37,0009.39,0008.93
2023-08-27 16:41:00,SystemResetWarning,0835.6,5.00,000.00,030.5,026.0,000.0,038.4,030.3,33.2,0000.5,0013.74,0009.40,0008.93
2023-08-27 16:42:00,SystemResetWarning,0835.6,5.00,000.00,030.4,026.3,000.0,038.5,030.4,32.9,0000.5,0013.63,0009.39,0008.93
2023-08-27 16:43:00,SystemResetWarning,0835.6,5.00,000.00,030.4,026.6,000.0,038.5,030.4,32.9,0000.6,0014.19,0009.36,0008.91
2023-08-27 16:44:00,SystemResetWarning,0835.6,4.99,000.00,030.4,026.3,000.0,038.4,030.4,32.8,0000.4,0015.42,0009.29,0008.88
2023-08-27 16:45:00,SystemResetWarning,0835.5,4.99,000.00,030.4,025.0,000.0,038.2,030.2,33.2,0000.3,0015.10,0009.29,0008.88
2023-08-27 16:46:00,SystemResetWarning,0835.5,5.01,000.00,030.3,024.4,000.0,038.1,030.1,33.6,0000.3,0015.14,0009.27,0008.87
2023-08-27 16:47:00,SystemResetWarning,0835.5,4.97,000.00,030.2,024.6,000.0,038.1,029.9,35.0,0000.3,0014.82,0009.23,0008.85
2023-08-27 16:48:00,SystemResetWarning,0835.5,5.04,000.00,030.1,024.9,000.0,038.1,030.0,35.2,0000.4,0014.78,0009.20,0008.82
2023-08-27 16:49:00,SystemResetWarning,0835.5,4.98,000.00,030.3,025.3,000.0,038.1,030.2,34.8,0000.3,0014.69,0009.15,0008.81
2023-08-27 16:50:00,SystemResetWarning,0835.5,4.99,000.00,030.4,025.7,000.0,038.2,030.3,34.4,0000.3,0014.95,0009.11,0008.79
2023-08-27 16:51:00,SystemResetWarning,0835.6,5.02,000.00,030.5,026.1,000.0,038.2,030.4,33.7,0000.9,0015.42,0009.08,0008.76
2023-08-27 16:52:00,SystemResetWarning,0835.6,5.00,000.00,030.5,026.4,000.0,038.2,030.4,33.3,0001.0,0015.33,0009.04,0008.73
2023-08-27 16:53:00,SystemResetWarning,0835.6,4.98,000.00,030.5,026.7,000.0,038.3,030.5,33.5,0000.7,0015.33,0009.02,0008.71
2023-08-27 16:54:00,SystemResetWarning,0835.6,5.00,000.00,030.5,026.5,000.0,038.3,030.5,33.0,0000.6,0015.08,0009.00,0008.68
2023-08-27 16:55:00,SystemResetWarning,0835.6,5.01,000.00,030.5,025.3,000.0,038.1,030.2,32.0,0000.7,0014.11,0008.95,0008.63
2023-08-27 16:56:00,SystemResetWarning,0835.5,5.00,000.00,030.5,024.5,000.0,038.0,030.1,31.4,0001.0,0013.76,0008.89,0008.57
2023-08-27 16:57:00,SystemResetWarning,0835.5,5.00,000.00,030.4,024.6,000.0,038.0,030.0,32.1,0001.2,0013.54,0008.83,0008.51
2023-08-27 16:58:00,SystemResetWarning,0835.5,5.01,000.00,030.2,024.9,000.0,038.1,029.9,33.6,0001.1,0013.15,0008.76,0008.45
2023-08-27 16:59:00,SystemResetWarning,0835.6,5.00,000.00,030.1,025.3,000.0,038.1,030.0,34.0,0001.1,0013.12,0008.74,0008.44
